This demonstration page uses our WeatherBlox Daily Observations layout. Learn more.

Left ArrowRight Arrow

39.92423, -83.80882

Hourly Observations for May 29, 2018

Temp ( °F °C ) Dew Point ( °F °C ) Humidity (%) Winds ( mph kmh ) Pressure ( in mb ) Visibility ( mi km ) Precip ( " mm )
12:56 am 00:56 Clear 73 22.8 66 18.9 79 79 Calm 29.96 1015 10 16.0934 0 0
1:56 am 01:56 Clear 70 21.1 67 19.4 90 90 E 3 6 29.95 1014 10 16.0934 0 0
3:56 am 03:56 Clear 67 19.4 65 18.3 93 93 Calm 29.95 1014 10 16.0934 0 0
4:56 am 04:56 Clear 65 18.3 64 17.8 97 97 E 3 6 29.95 1014 7 11.26538 0 0
5:56 am 05:56 Clear with Mist and Fog 64 17.8 63 17.2 96 96 NE 6 9 29.94 1014 6 9.65604 0 0
6:56 am 06:56 Sunny 66 18.9 65 18.3 96 96 ESE 5 7 29.96 1015 9 14.48406 0 0
7:56 am 07:56 Sunny 71 21.7 67 19.4 87 87 ESE 6 9 29.97 1015 10 16.0934 0 0
8:56 am 08:56 Sunny 76 24.4 67 19.4 74 74 ESE 8 13 29.97 1015 10 16.0934 0 0
9:56 am 09:56 Sunny 78 25.6 67 19.4 69 69 ESE 9 15 29.98 1015 10 16.0934 0 0
10:56 am 10:56 Sunny 81 27.2 67 19.4 62 62 SE 12 19 29.98 1015 10 16.0934 0 0
11:56 am 11:56 Sunny 82 27.8 67 19.4 60 60 E 12 19 29.96 1015 10 16.0934 0 0
12:56 pm 12:56 Mostly Sunny 84 28.9 66 18.9 55 55 ESE 16 26 29.95 1014 10 16.0934 0 0
1:56 pm 13:56 Partly Cloudy 85 29.4 67 19.4 55 55 E 17 28 29.92 1013 10 16.0934 0 0
2:56 pm 14:56 Sunny 87 30.6 64 17.8 46 46 ESE 22 35 29.91 1013 10 16.0934 0 0
3:56 pm 15:56 Sunny 87 30.6 65 18.3 48 48 E 21 33 29.89 1012 10 16.0934 0 0
4:56 pm 16:56 Sunny 87 30.6 64 17.8 46 46 SE 17 28 29.87 1012 10 16.0934 0 0
5:56 pm 17:56 Sunny 87 30.6 65 18.3 48 48 ESE 20 31 29.86 1011 10 16.0934 0 0
6:56 pm 18:56 Sunny 85 29.4 66 18.9 53 53 SE 13 20 29.85 1011 10 16.0934 0 0
7:56 pm 19:56 Sunny 83 28.3 66 18.9 57 57 ESE 14 22 29.85 1011 10 16.0934 0 0
8:56 pm 20:56 Clear 82 27.8 66 18.9 58 58 SE 13 20 29.86 1011 10 16.0934 0 0
9:56 pm 21:56 Clear 80 26.7 68 20 67 67 SE 9 15 29.86 1011 10 16.0934 0 0
10:56 pm 22:56 Clear 77 25 68 20 74 74 ESE 8 13 29.86 1011 10 16.0934 0 0
11:56 pm 23:56 Clear 77 25 69 20.6 77 77 ESE 12 19 29.84 1011 10 16.0934 0 0

Powered by AerisWeather